[[{"header":{"parameterUnit":"m.s-1","parameterCategory":2,"la1":30.2991,"la2":30.254,"lo1":-89.0895,"lo2":-89.0444,"dy":0.0017,"dx":0.0017,"nx":28,"ny":28,"refTime":"2024-08-27T09:00:00:Z","depth":"0","parameterNumber":2,"parameterNumberName":"U-component_of_CURRENTS"},"data":[0,0,0,0,0,0,0,0,0,0,0,0,0,0,0,0,0,0,0,0,0,0,0,0,0,0,0,0,0,0,0,0,0,0,0,0,0,0,0,0,0,0,0,0,0,0,0,0,0,0,0,0,0,0,0,0,0,0,-0.119,-0.1192,0,-0.1336,-0.1337,-0.1338,-0.1373,-0.1372,-0.1371,-0.1371,-0.1427,-0.1429,-0.1431,0,0,0,0,0,0,0,0,0,0,0,0,0,-0.1025,-0.1027,-0.119,-0.1192,-0.1194,-0.1336,-0.1337,-0.1339,-0.1373,-0.1372,-0.1371,-0.137,-0.1426,-0.1428,-0.1431,0,0,0,0,0,0,0,0,0,0,0,0,0,-0.1122,-0.1027,-0.1189,-0.1231,-0.1237,-0.1335,-0.1337,-0.1339,-0.1373,-0.1372,-0.1371,-0.137,-0.1425,-0.1428,-0.1431,-0.1469,0,0,-0.1441,-0.1442,0,0,0,0,0,0,0,0,-0.1116,-0.1127,-0.1223,-0.1228,-0.1235,-0.1339,-0.13,-0.138,-0.1373,-0.1317,-0.1371,-0.137,-0.1392,-0.1398,-0.1423,-0.1472,-0.1474,-0.1441,-0.1443,-0.1444,-0.1445,0,0,0,0,0,0,0,-0.1109,-0.1122,-0.1244,-0.1225,-0.1233,-0.1272,-0.1283,-0.1316,-0.1353,-0.1322,-0.1326,-0.1348,-0.1394,-0.142,-0.1424,-0.1475,-0.1441,-0.1444,-0.1445,-0.1447,-0.1593,-0.1594,0,0,0,0,0,0,-0.1097,-0.1115,-0.1239,-0.1248,-0.1177,-0.1275,-0.1288,-0.1303,-0.1355,-0.1364,-0.1349,-0.135,-0.1415,-0.1421,-0.1426,-0.1493,-0.1444,-0.1447,-0.1449,-0.1591,-0.1593,-0.1595,0,0,0,0,0,0,-0.1092,-0.1106,-0.1233,-0.1189,-0.1208,-0.1279,-0.1296,-0.1306,-0.133,-0.1378,-0.1384,-0.1361,-0.1415,-0.1422,-0.1471,-0.1495,-0.1448,-0.1451,-0.1588,-0.1591,-0.1594,-0.1615,0,0,0,0,0,0,-0.1087,-0.1103,-0.1109,-0.1188,-0.121,-0.1295,-0.1297,-0.131,-0.1348,-0.1349,-0.139,-0.1395,-0.1414,-0.1467,-0.1475,-0.1498,-0.1454,-0.1586,-0.159,-0.1593,-0.1612,-0.1618,-0.1624,0,0,0,0,0,-0.108,-0.1097,-0.1108,-0.1123,-0.1215,-0.1297,-0.1312,-0.1356,-0.1349,-0.137,-0.1403,-0.1393,-0.1496,-0.1471,-0.148,-0.1504,-0.1584,-0.1588,-0.1593,-0.1609,-0.1617,-0.1624,0,0,0,0,0,0,-0.1041,-0.1106,-0.1118,-0.1156,-0.1221,-0.1304,-0.1328,-0.1355,-0.1399,-0.139,-0.1421,-0.143,-0.1487,-0.1496,-0.1468,-0.1561,-0.1538,-0.1544,-0.1547,-0.1555,-0.1561,-0.156,-0.1456,0,0,0,0,0,-0.1032,-0.1052,-0.113,-0.1161,-0.1187,-0.1253,-0.1289,-0.132,-0.1373,-0.1391,-0.1425,-0.1463,-0.1516,-0.1532,-0.1578,-0.1621,-0.1669,-0.1645,-0.1651,-0.1655,-0.1663,-0.1768,-0.1784,-0.161,-0.161,-0.161,0,0,-0.1028,-0.1065,-0.1079,-0.1153,-0.1198,-0.1249,-0.1271,-0.1324,-0.1368,-0.1389,-0.1446,-0.1488,-0.1536,-0.1598,-0.1622,-0.1602,-0.1734,-0.1661,-0.1665,-0.167,-0.1775,-0.1792,-0.1807,-0.1613,-0.1613,-0.1612,0,0,-0.1031,-0.1059,-0.1075,-0.1124,-0.1192,-0.1243,-0.1255,-0.1335,-0.1368,-0.1433,-0.1469,-0.1538,-0.1589,-0.1655,-0.1686,-0.1756,-0.1771,-0.1748,-0.1767,-0.1869,-0.1884,-0.1898,-0.1992,-0.2014,-0.174,-0.174,-0.174,0,-0.1024,-0.1053,-0.1097,-0.113,-0.1171,-0.1235,-0.1272,-0.1329,-0.1418,-0.1459,-0.1447,-0.1591,-0.163,-0.1736,-0.1756,-0.1772,-0.1815,-0.173,-0.1877,-0.1891,-0.1905,-0.1998,-0.2022,-0.1742,-0.1742,-0.1742,-0.1741,0,-0.1042,-0.1066,-0.1083,-0.1138,-0.1191,-0.1235,-0.1317,-0.1369,-0.1408,-0.1474,-0.1581,-0.1655,-0.1737,-0.1764,-0.1775,-0.1892,-0.1888,-0.188,-0.1853,-0.1924,-0.2017,-0.2042,-0.1744,-0.1744,-0.1743,-0.1743,0,0,-0.103,-0.1081,-0.1088,-0.1103,-0.1193,-0.1238,-0.1315,-0.1417,-0.1465,-0.1559,-0.1638,-0.1757,-0.1795,-0.1835,-0.1875,-0.1957,-0.2098,-0.194,-0.1945,-0.2025,-0.2313,-0.2109,-0.2117,-0.2097,-0.2102,-0.2105,-0.2343,0,-0.1032,-0.1065,-0.1105,-0.1154,-0.1181,-0.1258,-0.1322,-0.142,-0.1501,-0.1594,-0.1709,-0.1793,-0.1822,-0.1848,-0.1949,-0.2057,-0.2161,-0.2034,-0.224,-0.2247,-0.205,-0.2137,-0.1915,-0.2089,-0.2367,-0.2371,-0.2374,0,-0.1047,-0.1059,-0.1089,-0.1143,-0.1163,-0.1204,-0.1311,-0.1377,-0.153,-0.1589,-0.1713,-0.1792,-0.1953,-0.194,-0.2203,-0.2108,-0.2216,-0.2301,-0.2312,-0.2128,-0.2087,-0.2063,-0.2123,-0.2036,-0.2412,-0.2409,-0.2406,0,-0.1015,-0.106,-0.1072,-0.1093,-0.1166,-0.1194,-0.1242,-0.1376,-0.1431,-0.1584,-0.1634,-0.1839,-0.1912,-0.2105,-0.2263,-0.2244,-0.2521,-0.2529,-0.2471,-0.246,-0.2314,-0.2279,-0.2301,-0.2731,-0.273,-0.273,-0.2729,0,-0.1015,-0.1028,-0.1045,-0.1053,-0.1073,-0.114,-0.1191,-0.1272,-0.1384,-0.1459,-0.1613,-0.1689,-0.1946,-0.2116,-0.2289,-0.2431,-0.256,-0.2495,-0.2509,-0.2312,-0.2275,-0.2222,-0.2279,-0.2739,-0.2737,-0.2735,-0.2733,0,-0.1,-0.1011,-0.1017,-0.1049,-0.1057,-0.1069,-0.1131,-0.1177,-0.1275,-0.1373,-0.1414,-0.1606,-0.1804,-0.2047,-0.2346,-0.2415,-0.2544,-0.2625,-0.2356,-0.2328,-0.2127,-0.2194,-0.2353,-0.2295,-0.2623,-0.2619,-0.2616,0,-0.1001,-0.0994,-0.0993,-0.0983,-0.0991,-0.101,-0.1032,-0.1119,-0.1169,-0.1315,-0.1359,-0.1537,-0.1641,-0.1965,-0.2137,-0.2393,-0.2443,-0.2306,-0.2224,-0.2083,-0.2175,-0.2248,-0.2194,-0.2087,-0.208,-0.2074,-0.2069,0,-0.099,-0.0978,-0.0975,-0.0938,-0.0935,-0.0948,-0.0978,-0.0999,-0.111,-0.1175,-0.126,-0.1331,-0.1541,-0.1659,-0.1897,-0.2016,-0.2159,-0.2185,-0.2145,-0.1832,-0.1821,-0.1775,-0.1971,-0.2017,-0.2022,-0.2026,-0.2029,-0.2031,-0.0975,-0.096,-0.093,-0.09,-0.0894,-0.0894,-0.0883,-0.0937,-0.0983,-0.1063,-0.1135,-0.1199,-0.1284,-0.1547,-0.1609,-0.1571,-0.1825,-0.1577,-0.1707,-0.1819,-0.1629,-0.1665,-0.1627,-0.1629,-0.1632,-0.1634,-0.1636,0,-0.0965,-0.0935,-0.0896,-0.0858,-0.0836,-0.0843,-0.0855,-0.0847,-0.0879,-0.0941,-0.098,-0.106,-0.1039,-0.1121,-0.1155,-0.1126,-0.1146,-0.1144,-0.1218,-0.1215,-0.1316,-0.1137,-0.0856,-0.0856,-0.0856,-0.0856,-0.0856,-0.0856,-0.0953,-0.0909,-0.0876,-0.0809,-0.0784,-0.0737,-0.0729,-0.0728,-0.0749,-0.0788,-0.0854,-0.0932,-0.1025,-0.1073,-0.0916,-0.0849,-0.091,-0.0911,-0.1055,-0.1096,-0.1146,-0.1194,-0.1029,-0.073,-0.0731,-0.0794,-0.0795,-0.0796]},{"header":{"parameterUnit":"m.s-1","parameterCategory":2,"la1":30.2991,"la2":30.254,"lo1":-89.0895,"lo2":-89.0444,"dy":0.0017,"dx":0.0017,"nx":28,"ny":28,"refTime":"2024-08-27T09:00:00:Z","depth":"0","parameterNumber":3,"parameterNumberName":"V-component_of_CURRENTS"},"data":[0,0,0,0,0,0,0,0,0,0,0,0,0,0,0,0,0,0,0,0,0,0,0,0,0,0,0,0,0,0,0,0,0,0,0,0,0,0,0,0,0,0,0,0,0,0,0,0,0,0,0,0,0,0,0,0,0,0,-0.1499,-0.1498,0,-0.1393,-0.1392,-0.1391,-0.1318,-0.1317,-0.1316,-0.1316,-0.1131,-0.1126,-0.1122,0,0,0,0,0,0,0,0,0,0,0,0,0,-0.154,-0.154,-0.1499,-0.1498,-0.1496,-0.1393,-0.1392,-0.1391,-0.1318,-0.1317,-0.1316,-0.1316,-0.1132,-0.1127,-0.1122,0,0,0,0,0,0,0,0,0,0,0,0,0,-0.1488,-0.154,-0.1499,-0.1447,-0.1441,-0.1394,-0.1392,-0.139,-0.1318,-0.1317,-0.1316,-0.1315,-0.1134,-0.1127,-0.1121,-0.11,0,0,-0.1101,-0.1098,0,0,0,0,0,0,0,0,-0.1491,-0.1487,-0.1456,-0.145,-0.1444,-0.1367,-0.1338,-0.1289,-0.1318,-0.1366,-0.1316,-0.1315,-0.1202,-0.119,-0.1175,-0.1091,-0.1083,-0.1101,-0.1097,-0.1094,-0.1092,0,0,0,0,0,0,0,-0.1495,-0.149,-0.1458,-0.1454,-0.1447,-0.1395,-0.1387,-0.1329,-0.129,-0.1361,-0.1356,-0.1343,-0.1198,-0.1181,-0.117,-0.1081,-0.1101,-0.1095,-0.1091,-0.1088,-0.0936,-0.0936,0,0,0,0,0,0,-0.1513,-0.1495,-0.1461,-0.1455,-0.1464,-0.1395,-0.1387,-0.1393,-0.1292,-0.1276,-0.1344,-0.134,-0.1193,-0.1177,-0.1163,-0.1131,-0.1094,-0.1088,-0.1084,-0.0936,-0.0936,-0.0936,0,0,0,0,0,0,-0.1514,-0.1512,-0.1466,-0.147,-0.146,-0.1396,-0.1403,-0.1392,-0.1368,-0.1279,-0.1262,-0.1331,-0.1192,-0.1172,-0.1112,-0.1123,-0.1085,-0.1079,-0.0936,-0.0936,-0.0936,-0.1067,0,0,0,0,0,0,-0.1516,-0.1513,-0.1518,-0.1472,-0.1461,-0.1446,-0.1404,-0.139,-0.1361,-0.1355,-0.1263,-0.1245,-0.1189,-0.1122,-0.1106,-0.1113,-0.1074,-0.0936,-0.0936,-0.0936,-0.1063,-0.1071,-0.1078,0,0,0,0,0,-0.1518,-0.1529,-0.1519,-0.1514,-0.1472,-0.1446,-0.1436,-0.1386,-0.1362,-0.136,-0.1296,-0.1248,-0.1108,-0.1117,-0.1098,-0.1104,-0.0937,-0.0936,-0.0936,-0.1059,-0.1069,-0.1078,0,0,0,0,0,0,-0.154,-0.1521,-0.1509,-0.1512,-0.1486,-0.1434,-0.1419,-0.1391,-0.1341,-0.1326,-0.1247,-0.1226,-0.1178,-0.1118,-0.113,-0.1056,-0.1013,-0.1009,-0.1114,-0.1122,-0.113,-0.1162,-0.1068,0,0,0,0,0,-0.1552,-0.156,-0.1529,-0.153,-0.1521,-0.1473,-0.1453,-0.1424,-0.1374,-0.1351,-0.1292,-0.122,-0.1162,-0.1126,-0.1065,-0.1025,-0.0967,-0.1013,-0.1021,-0.1028,-0.1039,-0.0971,-0.0974,-0.0935,-0.0935,-0.0935,0,0,-0.1555,-0.1548,-0.1548,-0.1535,-0.1508,-0.1503,-0.1459,-0.1434,-0.1433,-0.1337,-0.1312,-0.1246,-0.1157,-0.1118,-0.109,-0.1068,-0.1006,-0.1028,-0.1035,-0.1041,-0.0971,-0.0975,-0.0979,-0.0934,-0.0935,-0.0935,0,0,-0.157,-0.1568,-0.1578,-0.1569,-0.1541,-0.1517,-0.1515,-0.1473,-0.1459,-0.1424,-0.1359,-0.1308,-0.1212,-0.1168,-0.1127,-0.1138,-0.1052,-0.1107,-0.1171,-0.1106,-0.1109,-0.1111,-0.1039,-0.1034,-0.1109,-0.1109,-0.1109,0,-0.1573,-0.159,-0.1574,-0.1583,-0.1576,-0.1531,-0.1537,-0.1522,-0.1467,-0.147,-0.1427,-0.1322,-0.1241,-0.1213,-0.1205,-0.116,-0.11,-0.115,-0.1119,-0.112,-0.112,-0.1046,-0.1038,-0.1115,-0.1115,-0.1114,-0.1113,0,-0.1598,-0.161,-0.1615,-0.1621,-0.1613,-0.161,-0.1593,-0.1592,-0.1562,-0.1546,-0.1519,-0.1424,-0.1361,-0.1328,-0.1259,-0.123,-0.1179,-0.1143,-0.1107,-0.1133,-0.1051,-0.1041,-0.1124,-0.1122,-0.112,-0.1119,0,0,-0.1613,-0.1629,-0.1633,-0.1645,-0.1635,-0.1632,-0.1651,-0.1659,-0.1679,-0.1634,-0.1657,-0.1554,-0.1511,-0.146,-0.1383,-0.1323,-0.1257,-0.1232,-0.1226,-0.1181,-0.11,-0.0992,-0.097,-0.1213,-0.1212,-0.1211,-0.1042,0,-0.1636,-0.1668,-0.167,-0.1694,-0.1707,-0.1697,-0.172,-0.1726,-0.1718,-0.1733,-0.168,-0.1649,-0.1561,-0.1521,-0.1456,-0.132,-0.1236,-0.1305,-0.1063,-0.1055,-0.0973,-0.0957,-0.0975,-0.0819,-0.1032,-0.103,-0.1029,0,-0.1666,-0.1685,-0.1717,-0.1745,-0.1751,-0.1761,-0.1798,-0.181,-0.1837,-0.1832,-0.182,-0.1771,-0.1709,-0.1609,-0.1415,-0.146,-0.1277,-0.1163,-0.1153,-0.1002,-0.0929,-0.0824,-0.0792,-0.0465,-0.1013,-0.1014,-0.1015,0,-0.1691,-0.1721,-0.1751,-0.1759,-0.1781,-0.1806,-0.1815,-0.1844,-0.187,-0.1896,-0.1909,-0.1851,-0.1811,-0.1623,-0.1405,-0.1386,-0.1183,-0.1123,-0.0856,-0.0846,-0.0788,-0.0774,-0.043,-0.0942,-0.0942,-0.0943,-0.0943,0,-0.1722,-0.1745,-0.1767,-0.1785,-0.1827,-0.1832,-0.188,-0.1899,-0.1933,-0.1975,-0.195,-0.1975,-0.1804,-0.1685,-0.1451,-0.1147,-0.1209,-0.0859,-0.0793,-0.083,-0.0823,-0.0474,-0.0385,-0.0937,-0.0938,-0.0939,-0.094,0,-0.1744,-0.1758,-0.1794,-0.1827,-0.1839,-0.1869,-0.1909,-0.1949,-0.1974,-0.203,-0.2039,-0.2056,-0.1939,-0.1747,-0.1467,-0.1194,-0.0761,-0.0778,-0.0836,-0.0777,-0.0181,-0.0103,0.0183,0.0308,-0.0432,-0.0428,-0.0425,0,-0.1758,-0.1779,-0.1822,-0.1846,-0.1861,-0.1902,-0.1936,-0.1967,-0.2011,-0.208,-0.2116,-0.2075,-0.2098,-0.1702,-0.1313,-0.0917,-0.0664,-0.0516,-0.0456,-0.0131,0.0004,0.0007,0.009,-0.0431,-0.0428,-0.0426,-0.0424,0,-0.1781,-0.1795,-0.1821,-0.1872,-0.1911,-0.1961,-0.201,-0.2052,-0.21,-0.2154,-0.2242,-0.2287,-0.2035,-0.1779,-0.1256,-0.0888,-0.0348,-0.0444,-0.0106,0.0045,0.0062,0.0205,-0.0551,-0.0403,-0.0406,-0.0407,-0.0408,-0.0409,-0.179,-0.1813,-0.1848,-0.1897,-0.1943,-0.2016,-0.2062,-0.2138,-0.2216,-0.2322,-0.2342,-0.2456,-0.211,-0.1493,-0.1015,-0.0068,-0.0192,0.0266,0.0336,0.0316,0.0435,-0.0255,-0.0031,-0.003,-0.003,-0.003,-0.003,0,-0.1811,-0.1833,-0.1874,-0.1933,-0.1987,-0.201,-0.2108,-0.2177,-0.2289,-0.2415,-0.2499,-0.2413,-0.1846,-0.121,-0.0059,0.0603,0.0738,0.0963,0.0968,0.1021,0.0438,0.0446,0.0778,0.0778,0.0778,0.0777,0.0777,0.0777,-0.1818,-0.1858,-0.1881,-0.1959,-0.1998,-0.2087,-0.2145,-0.2272,-0.239,-0.2543,-0.2631,-0.2701,-0.1838,-0.0174,0.1127,0.1371,0.1714,0.167,0.1884,0.1516,0.1456,0.1399,0.1439,0.1974,0.1975,0.2391,0.2395,0.2399]}],[{"header":{"parameterUnit":"m.s-1","parameterCategory":2,"la1":30.2991,"la2":30.254,"lo1":-89.0895,"lo2":-89.0444,"dy":0.0017,"dx":0.0017,"nx":28,"ny":28,"refTime":"2024-08-27T09:00:00:Z","depth":"2","parameterNumber":2,"parameterNumberName":"U-component_of_CURRENTS"},"data":[0,0,0,0,0,0,0,0,0,0,0,0,0,0,0,0,0,0,0,0,0,0,0,0,0,0,0,0,0,0,0,0,0,0,0,0,0,0,0,0,0,0,0,0,0,0,0,0,0,0,0,0,0,0,0,0,0,0,-0.2712,-0.2712,0,-0.2727,-0.2726,-0.2726,-0.2735,-0.2736,-0.2736,-0.2736,-0.2655,-0.2653,-0.265,0,0,0,0,0,0,0,0,0,0,0,0,0,-0.2595,-0.2598,-0.2712,-0.2713,-0.2713,-0.2727,-0.2726,-0.2726,-0.2735,-0.2736,-0.2736,-0.2737,-0.2656,-0.2653,-0.265,0,0,0,0,0,0,0,0,0,0,0,0,0,-0.2629,-0.2599,-0.2712,-0.2722,-0.2723,-0.2727,-0.2726,-0.2726,-0.2735,-0.2736,-0.2736,-0.2737,-0.2657,-0.2653,-0.2649,-0.2616,0,0,-0.2638,-0.2636,0,0,0,0,0,0,0,0,-0.2627,-0.2632,-0.272,-0.2721,-0.2722,-0.2733,-0.2656,-0.2686,-0.2735,-0.2727,-0.2736,-0.2737,-0.2674,-0.2669,-0.2667,-0.2612,-0.2608,-0.2638,-0.2635,-0.2634,-0.2633,0,0,0,0,0,0,0,-0.2625,-0.2631,-0.2714,-0.272,-0.2722,-0.2692,-0.2698,-0.2661,-0.2693,-0.2728,-0.2729,-0.2736,-0.2673,-0.2671,-0.2665,-0.2607,-0.2638,-0.2634,-0.2632,-0.2631,-0.2589,-0.259,0,0,0,0,0,0,-0.2635,-0.263,-0.2714,-0.2715,-0.2679,-0.2694,-0.2701,-0.2726,-0.2695,-0.2693,-0.2736,-0.2736,-0.2677,-0.2669,-0.2662,-0.2669,-0.2634,-0.263,-0.2628,-0.2588,-0.2589,-0.2591,0,0,0,0,0,0,-0.2632,-0.2643,-0.2714,-0.2674,-0.2681,-0.2697,-0.2724,-0.2726,-0.2747,-0.2703,-0.2698,-0.2759,-0.2677,-0.2667,-0.2658,-0.2664,-0.2629,-0.2625,-0.2587,-0.2588,-0.259,-0.2652,0,0,0,0,0,0,-0.2629,-0.2642,-0.2669,-0.2676,-0.2684,-0.2715,-0.2724,-0.2726,-0.2751,-0.2753,-0.272,-0.2712,-0.2677,-0.2664,-0.2654,-0.2658,-0.2622,-0.2585,-0.2587,-0.2589,-0.2648,-0.2655,-0.2661,0,0,0,0,0,-0.2625,-0.2658,-0.267,-0.2681,-0.272,-0.2715,-0.2716,-0.2726,-0.2752,-0.275,-0.275,-0.2715,-0.267,-0.2662,-0.265,-0.2653,-0.2584,-0.2587,-0.2589,-0.2645,-0.2654,-0.2661,0,0,0,0,0,0,-0.2623,-0.2662,-0.2676,-0.2721,-0.2719,-0.2718,-0.2732,-0.2742,-0.2744,-0.2768,-0.2725,-0.2716,-0.2711,-0.2679,-0.2671,-0.2651,-0.2622,-0.2623,-0.2669,-0.2677,-0.2683,-0.2724,-0.2619,0,0,0,0,0,-0.2636,-0.2666,-0.2686,-0.2715,-0.2728,-0.2737,-0.2744,-0.2758,-0.276,-0.2764,-0.2746,-0.2732,-0.2708,-0.2693,-0.2668,-0.2651,-0.2647,-0.2649,-0.2656,-0.2661,-0.2689,-0.2723,-0.2736,-0.2599,-0.2599,-0.2599,0,0,-0.2639,-0.2666,-0.2682,-0.2715,-0.2725,-0.2745,-0.2742,-0.2771,-0.2786,-0.2752,-0.2774,-0.2756,-0.2712,-0.2701,-0.2695,-0.2675,-0.2688,-0.2665,-0.2669,-0.2695,-0.2727,-0.2741,-0.2753,-0.2601,-0.26,-0.26,0,0,-0.2645,-0.2692,-0.2716,-0.273,-0.2762,-0.2768,-0.2784,-0.2807,-0.2817,-0.2829,-0.2817,-0.2818,-0.2774,-0.2753,-0.2731,-0.2761,-0.2728,-0.2746,-0.2802,-0.2834,-0.2846,-0.2857,-0.2826,-0.2833,-0.2742,-0.2742,-0.2743,0,-0.2647,-0.2691,-0.2714,-0.2743,-0.2765,-0.2786,-0.2814,-0.2822,-0.2837,-0.2839,-0.2847,-0.2834,-0.2801,-0.2785,-0.2806,-0.2775,-0.2777,-0.277,-0.2844,-0.2855,-0.2865,-0.2831,-0.2839,-0.2746,-0.2745,-0.2745,-0.2745,0,-0.2665,-0.2712,-0.2729,-0.2778,-0.2797,-0.2826,-0.2851,-0.2879,-0.2904,-0.2897,-0.291,-0.2893,-0.2889,-0.2868,-0.2848,-0.289,-0.286,-0.2853,-0.2826,-0.2883,-0.2842,-0.2849,-0.275,-0.2749,-0.2748,-0.2747,0,0,-0.2627,-0.2725,-0.2727,-0.2764,-0.283,-0.2839,-0.2888,-0.2903,-0.2935,-0.2946,-0.2965,-0.2954,-0.297,-0.2953,-0.2933,-0.2959,-0.3014,-0.2953,-0.2953,-0.2925,-0.3056,-0.2803,-0.2785,-0.3035,-0.3038,-0.304,-0.2984,0,-0.2627,-0.2684,-0.274,-0.2793,-0.2828,-0.2887,-0.2918,-0.2944,-0.2967,-0.2987,-0.2978,-0.2992,-0.2989,-0.3013,-0.3043,-0.3044,-0.3044,-0.3028,-0.3004,-0.3002,-0.2774,-0.2789,-0.2576,-0.2489,-0.299,-0.2991,-0.2992,0,-0.2609,-0.266,-0.271,-0.2813,-0.2836,-0.2869,-0.2941,-0.2978,-0.3009,-0.3032,-0.3065,-0.3073,-0.3119,-0.3111,-0.3155,-0.3156,-0.3123,-0.3103,-0.31,-0.2856,-0.2763,-0.2523,-0.2483,-0.3003,-0.3002,-0.3001,-0.3001,0,-0.2527,-0.2632,-0.2669,-0.2702,-0.2816,-0.2853,-0.2913,-0.2972,-0.299,-0.307,-0.3086,-0.3156,-0.3176,-0.3215,-0.3189,-0.3206,-0.3196,-0.3201,-0.2916,-0.2896,-0.2704,-0.266,-0.3208,-0.3208,-0.3208,-0.3208,-0.3208,0,-0.2485,-0.252,-0.2634,-0.2654,-0.2701,-0.2812,-0.2856,-0.2931,-0.3002,-0.2985,-0.3105,-0.3089,-0.3217,-0.3211,-0.3209,-0.3065,-0.3212,-0.2925,-0.2874,-0.2708,-0.2668,-0.3118,-0.3109,-0.3206,-0.3206,-0.3207,-0.3207,0,-0.2368,-0.2453,-0.25,-0.2623,-0.2655,-0.2682,-0.2792,-0.2822,-0.293,-0.2924,-0.2955,-0.305,-0.3041,-0.3083,-0.3104,-0.3025,-0.2958,-0.2847,-0.2604,-0.2521,-0.2632,-0.2627,-0.2565,-0.2556,-0.2548,-0.2541,-0.2536,0,-0.2317,-0.2321,-0.2423,-0.2445,-0.2497,-0.2562,-0.2596,-0.2739,-0.2752,-0.284,-0.2798,-0.2835,-0.2758,-0.2689,-0.2603,-0.2515,-0.2676,-0.2244,-0.2221,-0.2615,-0.2572,-0.2579,-0.2584,-0.199,-0.1981,-0.1973,-0.1967,0,-0.2201,-0.2224,-0.225,-0.2287,-0.2327,-0.2376,-0.2435,-0.2431,-0.2561,-0.2568,-0.2531,-0.2499,-0.2378,-0.2179,-0.2061,-0.1993,-0.2264,-0.207,-0.2589,-0.2153,-0.2059,-0.2021,-0.2049,-0.1897,-0.1904,-0.191,-0.1913,-0.1916,-0.2087,-0.2059,-0.2084,-0.2099,-0.2153,-0.2175,-0.2174,-0.2227,-0.2221,-0.2216,-0.2239,-0.2125,-0.1985,-0.1679,-0.1557,-0.151,-0.1661,-0.1631,-0.1663,-0.1701,-0.1612,-0.1506,-0.1222,-0.1225,-0.1227,-0.123,-0.1232,0,-0.1942,-0.1919,-0.1912,-0.1938,-0.194,-0.2028,-0.2048,-0.2004,-0.1953,-0.1952,-0.1916,-0.1548,-0.135,-0.128,-0.1054,-0.0955,-0.1052,-0.0944,-0.1095,-0.1158,-0.1216,-0.1113,-0.0585,-0.0584,-0.0583,-0.0582,0,0,-0.1862,-0.1787,-0.1764,-0.171,-0.1745,-0.1738,-0.1733,-0.1665,-0.164,-0.1481,-0.1408,-0.1436,-0.1277,-0.0965,-0.0824,-0.0705,-0.0976,-0.0673,-0.1182,-0.1429,-0.1489,-0.1572,-0.1474,0,0,0,0,0]},{"header":{"parameterUnit":"m.s-1","parameterCategory":2,"la1":30.2991,"la2":30.254,"lo1":-89.0895,"lo2":-89.0444,"dy":0.0017,"dx":0.0017,"nx":28,"ny":28,"refTime":"2024-08-27T09:00:00:Z","depth":"2","parameterNumber":3,"parameterNumberName":"V-component_of_CURRENTS"},"data":[0,0,0,0,0,0,0,0,0,0,0,0,0,0,0,0,0,0,0,0,0,0,0,0,0,0,0,0,0,0,0,0,0,0,0,0,0,0,0,0,0,0,0,0,0,0,0,0,0,0,0,0,0,0,0,0,0,0,0.0691,0.0693,0,0.088,0.0883,0.0885,0.0991,0.0991,0.0991,0.0991,0.1159,0.1163,0.1168,0,0,0,0,0,0,0,0,0,0,0,0,0,0.0558,0.0559,0.0691,0.0693,0.0695,0.088,0.0883,0.0886,0.0991,0.0991,0.0991,0.0991,0.1158,0.1163,0.1168,0,0,0,0,0,0,0,0,0,0,0,0,0,0.0671,0.056,0.0691,0.0767,0.0776,0.0879,0.0883,0.0887,0.0991,0.0991,0.0991,0.0991,0.1156,0.1162,0.1169,0.121,0,0,0.1189,0.1192,0,0,0,0,0,0,0,0,0.0664,0.0676,0.0754,0.0762,0.0772,0.0909,0.0898,0.0993,0.0991,0.0913,0.0991,0.0991,0.1071,0.1085,0.1126,0.1218,0.1225,0.119,0.1194,0.1197,0.1199,0,0,0,0,0,0,0,0.0656,0.0669,0.077,0.0756,0.0767,0.0839,0.0854,0.0917,0.0992,0.092,0.0927,0.0942,0.1076,0.1119,0.113,0.1228,0.119,0.1196,0.12,0.1203,0.1354,0.1354,0,0,0,0,0,0,0.0619,0.0661,0.0764,0.0775,0.0713,0.084,0.0858,0.0868,0.0992,0.101,0.0942,0.0947,0.1107,0.1122,0.1136,0.1153,0.1197,0.1203,0.1207,0.1354,0.1354,0.1354,0,0,0,0,0,0,0.0615,0.0626,0.0756,0.072,0.0741,0.0841,0.0853,0.0871,0.0906,0.1009,0.1027,0.0956,0.1108,0.1127,0.1198,0.1161,0.1206,0.1212,0.1354,0.1354,0.1354,0.1211,0,0,0,0,0,0,0.0611,0.0624,0.0611,0.0717,0.0742,0.0787,0.0853,0.0875,0.0915,0.0922,0.1027,0.1043,0.111,0.1188,0.1205,0.1171,0.1218,0.1354,0.1354,0.1354,0.1216,0.1206,0.1198,0,0,0,0,0,0.0605,0.0584,0.061,0.0622,0.0724,0.0785,0.0804,0.0879,0.0914,0.0914,0.1007,0.1039,0.1199,0.1194,0.1214,0.1181,0.1354,0.1354,0.1354,0.122,0.1208,0.1198,0,0,0,0,0,0,0.0524,0.0596,0.0626,0.0629,0.0687,0.0801,0.0809,0.0866,0.0943,0.0957,0.1054,0.1077,0.1131,0.1181,0.1173,0.1228,0.1276,0.128,0.1167,0.1156,0.1148,0.114,0.1223,0,0,0,0,0,0.0497,0.0495,0.0583,0.0581,0.0605,0.0705,0.0739,0.0797,0.0881,0.0915,0.0992,0.1075,0.1149,0.1171,0.1253,0.1276,0.1318,0.1267,0.1258,0.1249,0.1259,0.129,0.1283,0.1354,0.1354,0.1354,0,0,0.0468,0.0502,0.0505,0.0562,0.0617,0.0653,0.0725,0.0771,0.0801,0.0921,0.0976,0.106,0.1158,0.12,0.1223,0.1229,0.1247,0.1249,0.1241,0.1256,0.1289,0.1282,0.1276,0.1354,0.1354,0.1354,0,0,0.0406,0.0435,0.0417,0.0465,0.0533,0.0601,0.0604,0.0711,0.0749,0.0819,0.0916,0.0979,0.1082,0.1141,0.1185,0.1174,0.1218,0.1185,0.1108,0.1136,0.113,0.1125,0.114,0.1138,0.1155,0.1155,0.1155,0,0.0364,0.0362,0.0421,0.0429,0.0464,0.0568,0.0579,0.0637,0.0754,0.0777,0.0813,0.0981,0.1055,0.1108,0.111,0.1149,0.1173,0.1131,0.112,0.1117,0.1115,0.1132,0.1131,0.1148,0.1149,0.1149,0.115,0,0.0313,0.0312,0.0306,0.035,0.0393,0.0418,0.0511,0.0552,0.0615,0.0677,0.0746,0.0862,0.0952,0.0972,0.1044,0.1057,0.1082,0.1118,0.1135,0.1098,0.1119,0.1121,0.1138,0.1141,0.1143,0.1144,0,0,0.0225,0.0257,0.0257,0.0259,0.0358,0.0386,0.0431,0.049,0.0511,0.0601,0.0619,0.0745,0.0803,0.0861,0.094,0.0963,0.0959,0.102,0.1024,0.1013,0.1007,0.1019,0.1023,0.0984,0.0984,0.0984,0.1017,0,0.0165,0.0132,0.0189,0.0188,0.0188,0.0299,0.0328,0.04,0.0469,0.051,0.0601,0.0659,0.0756,0.0789,0.0831,0.0953,0.0963,0.0947,0.1068,0.1071,0.1068,0.1026,0.0948,0.0972,0.102,0.102,0.102,0,0.0111,0.0089,0.0054,0.0093,0.0107,0.0127,0.0198,0.024,0.0327,0.0375,0.0446,0.0538,0.0613,0.0686,0.0834,0.0818,0.0901,0.0977,0.098,0.105,0.1088,0.1028,0.0974,0.1024,0.1024,0.1024,0.1023,0,0.0013,0.0012,-0.0036,-0.0017,0.004,0.0042,0.0083,0.0177,0.0201,0.0272,0.0292,0.0417,0.0457,0.0598,0.0793,0.08,0.0948,0.097,0.1051,0.1052,0.1044,0.1044,0.1044,0.1044,0.1044,0.1043,0.1043,0,-0.0057,-0.0083,-0.0103,-0.012,-0.0161,-0.0077,-0.0084,-0.0019,0.0049,0.0061,0.0193,0.0229,0.0436,0.0566,0.0743,0.0914,0.0907,0.1037,0.1062,0.0991,0.0986,0.1093,0.1098,0.1045,0.1044,0.1044,0.1044,0,-0.0129,-0.0144,-0.0199,-0.0205,-0.0213,-0.0243,-0.02,-0.0193,-0.0124,-0.0104,-0.0095,0.006,0.0238,0.0473,0.0696,0.0821,0.1004,0.1061,0.0963,0.0976,0.1091,0.1089,0.1121,0.1122,0.1122,0.1123,0.1123,0,-0.0164,-0.0212,-0.0284,-0.0331,-0.0342,-0.0373,-0.0376,-0.0301,-0.028,-0.0195,-0.0194,-0.0045,0.0086,0.0419,0.0689,0.0968,0.1022,0.1023,0.1028,0.1079,0.11,0.1097,0.1094,0.0947,0.0946,0.0945,0.0944,0,-0.0219,-0.026,-0.0314,-0.0432,-0.0481,-0.0513,-0.0517,-0.0527,-0.0432,-0.0403,-0.0341,-0.0249,0.0058,0.0345,0.0708,0.0856,0.0981,0.1012,0.1088,0.0947,0.092,0.0939,0.0941,0.0937,0.0938,0.0938,0.0939,0.0939,-0.0256,-0.032,-0.0411,-0.0515,-0.0583,-0.0636,-0.0662,-0.0628,-0.061,-0.05,-0.0421,-0.022,0.0037,0.0562,0.0749,0.0922,0.0958,0.1,0.1,0.1002,0.0983,0.096,0.098,0.0981,0.0981,0.0982,0.0983,0,-0.0281,-0.0364,-0.0471,-0.0596,-0.0686,-0.0705,-0.0732,-0.0705,-0.0682,-0.0516,-0.0398,-0.0074,0.0229,0.0513,0.0768,0.0907,0.0871,0.0912,0.0856,0.0863,0.0869,0.0842,0.0802,0.0802,0.0802,0.0802,0,0,-0.0301,-0.0399,-0.0469,-0.0652,-0.075,-0.0836,-0.0862,-0.079,-0.0661,-0.0468,-0.0267,0.0025,0.0305,0.0484,0.0635,0.0724,0.0739,0.0699,0.0827,0.0744,0.0747,0.0901,0.0865,0,0,0,0,0]}],[{"header":{"parameterUnit":"m.s-1","parameterCategory":2,"la1":30.2991,"la2":30.254,"lo1":-89.0895,"lo2":-89.0444,"dy":0.0017,"dx":0.0017,"nx":28,"ny":28,"refTime":"2024-08-27T09:00:00:Z","depth":"4","parameterNumber":2,"parameterNumberName":"U-component_of_CURRENTS"},"data":[0,0,0,0,0,0,0,0,0,0,0,0,0,0,0,0,0,0,0,0,0,0,0,0,0,0,0,0,0,0,0,0,0,0,0,0,0,0,0,0,0,0,0,0,0,0,0,0,0,0,0,0,0,0,0,0,0,0,-0.105,-0.1051,0,-0.1132,-0.1133,-0.1134,-0.119,-0.119,-0.119,-0.1191,-0.13,-0.1303,-0.1306,0,0,0,0,0,0,0,0,0,0,0,0,0,-0.0975,-0.0976,-0.105,-0.1051,-0.1052,-0.1131,-0.1133,-0.1134,-0.1189,-0.119,-0.119,-0.1191,-0.13,-0.1303,-0.1306,0,0,0,0,0,0,0,0,0,0,0,0,0,-0.1028,-0.0976,-0.105,-0.1089,-0.1093,-0.1131,-0.1133,-0.1134,-0.1189,-0.119,-0.119,-0.1191,-0.1299,-0.1302,-0.1306,-0.1321,0,0,-0.1318,-0.132,0,0,0,0,0,0,0,0,-0.1025,-0.1031,-0.1082,-0.1086,-0.1091,-0.115,-0.1146,-0.1198,-0.1189,-0.1154,-0.1191,-0.1191,-0.1252,-0.126,-0.1275,-0.1326,-0.1331,-0.1319,-0.1321,-0.1323,-0.1324,0,0,0,0,0,0,0,-0.1021,-0.1028,-0.1084,-0.1083,-0.1088,-0.1113,-0.1121,-0.1156,-0.12,-0.1157,-0.1161,-0.1168,-0.1255,-0.1271,-0.1278,-0.1332,-0.1319,-0.1322,-0.1324,-0.1326,-0.1451,-0.1452,0,0,0,0,0,0,-0.1007,-0.1024,-0.1081,-0.1086,-0.1057,-0.1113,-0.1122,-0.1131,-0.12,-0.121,-0.1168,-0.1171,-0.1264,-0.1273,-0.1282,-0.1367,-0.1323,-0.1326,-0.1329,-0.145,-0.1451,-0.1452,0,0,0,0,0,0,-0.1005,-0.1011,-0.1078,-0.1056,-0.1066,-0.1114,-0.1124,-0.1133,-0.1165,-0.1207,-0.1218,-0.1193,-0.1265,-0.1276,-0.133,-0.137,-0.1328,-0.1332,-0.1449,-0.145,-0.1452,-0.1497,0,0,0,0,0,0,-0.1002,-0.101,-0.1018,-0.1055,-0.1067,-0.1115,-0.1124,-0.1134,-0.1167,-0.1172,-0.1232,-0.1242,-0.1266,-0.1324,-0.1334,-0.1374,-0.1335,-0.1448,-0.145,-0.1451,-0.1495,-0.15,-0.1505,0,0,0,0,0,-0.1,-0.1013,-0.1017,-0.1025,-0.1073,-0.1116,-0.1125,-0.1161,-0.1168,-0.1191,-0.1227,-0.1241,-0.1343,-0.1328,-0.134,-0.1382,-0.1447,-0.1449,-0.1451,-0.1492,-0.1499,-0.1505,0,0,0,0,0,0,-0.0986,-0.1021,-0.1027,-0.105,-0.1084,-0.1126,-0.115,-0.1167,-0.1213,-0.1223,-0.1255,-0.1269,-0.133,-0.1343,-0.1326,-0.142,-0.1396,-0.1401,-0.1424,-0.143,-0.1435,-0.1433,-0.1338,0,0,0,0,0,-0.0983,-0.1001,-0.1037,-0.1055,-0.1075,-0.1111,-0.1134,-0.1159,-0.12,-0.1221,-0.1265,-0.1306,-0.1344,-0.1376,-0.1411,-0.1466,-0.146,-0.1498,-0.1503,-0.1507,-0.1511,-0.1527,-0.1534,-0.1459,-0.1459,-0.1459,0,0,-0.098,-0.1002,-0.1011,-0.1053,-0.1083,-0.1121,-0.1128,-0.1171,-0.1213,-0.1226,-0.1303,-0.1327,-0.136,-0.1422,-0.1451,-0.1443,-0.1525,-0.151,-0.1514,-0.1515,-0.153,-0.1537,-0.1543,-0.1461,-0.1461,-0.146,0,0,-0.0984,-0.1007,-0.1024,-0.1062,-0.1109,-0.1135,-0.1149,-0.1206,-0.1245,-0.131,-0.1327,-0.1369,-0.1444,-0.1471,-0.1492,-0.1543,-0.1547,-0.1562,-0.1599,-0.1614,-0.162,-0.1626,-0.1627,-0.1632,-0.1571,-0.1571,-0.1571,0,-0.0978,-0.1003,-0.1037,-0.1074,-0.1109,-0.1143,-0.1181,-0.1227,-0.1297,-0.1335,-0.1344,-0.1442,-0.1466,-0.1528,-0.1549,-0.1557,-0.1562,-0.1575,-0.1621,-0.1626,-0.1631,-0.163,-0.1635,-0.1574,-0.1573,-0.1573,-0.1573,0,-0.099,-0.1027,-0.1047,-0.11,-0.1148,-0.1185,-0.1252,-0.131,-0.1355,-0.1396,-0.1478,-0.151,-0.1564,-0.1583,-0.1587,-0.164,-0.163,-0.162,-0.1605,-0.1641,-0.1638,-0.1643,-0.1577,-0.1576,-0.1576,-0.1575,0,0,-0.0937,-0.1031,-0.1042,-0.1076,-0.1166,-0.1201,-0.1292,-0.1369,-0.1417,-0.1495,-0.156,-0.1624,-0.1635,-0.1656,-0.1667,-0.1688,-0.172,-0.1677,-0.1676,-0.1677,-0.1752,-0.1629,-0.1621,-0.1725,-0.1726,-0.1727,-0.1735,0,-0.0932,-0.0987,-0.1052,-0.1123,-0.1159,-0.1249,-0.1323,-0.1409,-0.1479,-0.1554,-0.1607,-0.166,-0.1665,-0.1685,-0.1713,-0.172,-0.1735,-0.1718,-0.1717,-0.1717,-0.1602,-0.1623,-0.173,-0.1739,-0.174,-0.174,-0.1741,0,-0.0918,-0.096,-0.1016,-0.1131,-0.1158,-0.1213,-0.1335,-0.1404,-0.1524,-0.1584,-0.1659,-0.1697,-0.1756,-0.1738,-0.1784,-0.1778,-0.1769,-0.1768,-0.1768,-0.1639,-0.1601,-0.1695,-0.1749,-0.1748,-0.1747,-0.1747,-0.1746,0,-0.0833,-0.0942,-0.0977,-0.1017,-0.1145,-0.1207,-0.1279,-0.1407,-0.1465,-0.1589,-0.163,-0.1723,-0.1749,-0.1782,-0.1796,-0.1795,-0.1827,-0.1818,-0.17,-0.1691,-0.178,-0.1774,-0.1834,-0.1834,-0.1834,-0.1834,-0.1834,0,-0.0789,-0.0831,-0.0941,-0.0958,-0.1015,-0.1147,-0.1223,-0.1312,-0.1437,-0.1481,-0.1614,-0.1638,-0.176,-0.1798,-0.1811,-0.1766,-0.1838,-0.1704,-0.1685,-0.1798,-0.1795,-0.1783,-0.1777,-0.1834,-0.1834,-0.1834,-0.1834,0,-0.0703,-0.0766,-0.0806,-0.0927,-0.0967,-0.1005,-0.1159,-0.1216,-0.1344,-0.1406,-0.1441,-0.158,-0.1628,-0.1729,-0.1776,-0.1747,-0.1739,-0.1699,-0.1816,-0.1804,-0.1591,-0.1588,-0.157,-0.1566,-0.1562,-0.1559,-0.1556,0,-0.067,-0.0676,-0.0745,-0.0746,-0.0801,-0.0892,-0.0956,-0.1132,-0.119,-0.1331,-0.1336,-0.1438,-0.1517,-0.1496,-0.1611,-0.1656,-0.1635,-0.1629,-0.1612,-0.1581,-0.1565,-0.1567,-0.1568,-0.1551,-0.155,-0.1549,-0.1548,0,-0.0606,-0.0614,-0.0641,-0.0616,-0.0662,-0.0736,-0.0841,-0.0875,-0.1062,-0.1173,-0.1193,-0.1249,-0.1305,-0.1388,-0.1448,-0.1468,-0.1642,-0.1591,-0.1598,-0.1582,-0.1557,-0.1545,-0.1551,-0.1535,-0.1537,-0.1538,-0.1539,0,-0.0557,-0.0537,-0.0529,-0.0513,-0.054,-0.0576,-0.0661,-0.0752,-0.0839,-0.1016,-0.0996,-0.1124,-0.1241,-0.1285,-0.1324,-0.1365,-0.1349,-0.1314,-0.1336,-0.1351,-0.1286,-0.1223,-0.1077,0,0,0,0,0,-0.0514,-0.0475,-0.0434,-0.0407,-0.0417,-0.0449,-0.0584,-0.0691,-0.0862,-0.0828,-0.0922,-0.0966,-0.1044,-0.111,-0.1116,-0.1257,-0.1374,-0.1259,-0.1348,-0.1465,-0.148,-0.1429,0,0,0,0,0,0,-0.0478,-0.0446,-0.0407,-0.0323,-0.0288,-0.0332,-0.0427,-0.0547,-0.0561,-0.0709,-0.0757,-0.0862,-0.0963,-0.1001,-0.1068,-0.1098,-0.1129,-0.1347,-0.1344,-0.1457,-0.147,-0.1482,-0.1435,0,0,0,0,0]},{"header":{"parameterUnit":"m.s-1","parameterCategory":2,"la1":30.2991,"la2":30.254,"lo1":-89.0895,"lo2":-89.0444,"dy":0.0017,"dx":0.0017,"nx":28,"ny":28,"refTime":"2024-08-27T09:00:00:Z","depth":"4","parameterNumber":3,"parameterNumberName":"V-component_of_CURRENTS"},"data":[0,0,0,0,0,0,0,0,0,0,0,0,0,0,0,0,0,0,0,0,0,0,0,0,0,0,0,0,0,0,0,0,0,0,0,0,0,0,0,0,0,0,0,0,0,0,0,0,0,0,0,0,0,0,0,0,0,0,-0.0011,-0.0011,0,0.0024,0.0025,0.0026,0.0091,0.0092,0.0092,0.0093,0.0178,0.018,0.0181,0,0,0,0,0,0,0,0,0,0,0,0,0,0.0018,0.0017,-0.0011,-0.0011,-0.0011,0.0024,0.0025,0.0026,0.0091,0.0092,0.0093,0.0093,0.0178,0.018,0.0182,0,0,0,0,0,0,0,0,0,0,0,0,0,0.003,0.0017,-0.0011,0.0021,0.0024,0.0024,0.0025,0.0027,0.0091,0.0092,0.0093,0.0094,0.0177,0.018,0.0182,0.0174,0,0,0.0189,0.019,0,0,0,0,0,0,0,0,0.0029,0.0029,0.0017,0.0019,0.0022,0.005,0.0067,0.0076,0.009,0.0071,0.0093,0.0094,0.0136,0.0141,0.0153,0.0178,0.0182,0.0189,0.0191,0.0192,0.0192,0,0,0,0,0,0,0,0.0028,0.0028,0.0008,0.0016,0.002,0.0048,0.0051,0.0069,0.0102,0.0073,0.0076,0.0071,0.0138,0.015,0.0155,0.0183,0.0189,0.0191,0.0193,0.0194,0.0235,0.0235,0,0,0,0,0,0,0.0009,0.0027,0.0007,0.0009,0.0022,0.0046,0.005,0.0044,0.01,0.0108,0.007,0.0074,0.0146,0.0152,0.0158,0.0194,0.0192,0.0194,0.0195,0.0236,0.0235,0.0235,0,0,0,0,0,0,0.001,0.0007,0.0006,0.0015,0.0016,0.0043,0.0037,0.0044,0.0059,0.0097,0.0107,0.0078,0.0147,0.0155,0.018,0.0196,0.0195,0.0197,0.0236,0.0235,0.0235,0.0239,0,0,0,0,0,0,0.001,0.0007,-0.0002,0.0013,0.0014,0.0007,0.0036,0.0044,0.0051,0.0057,0.0106,0.0115,0.0148,0.0176,0.0182,0.02,0.0199,0.0236,0.0236,0.0235,0.0239,0.0238,0.0238,0,0,0,0,0,0.0011,-0.0008,-0.0003,-0.0006,0.0,0.0006,0.001,0.0037,0.005,0.0056,0.009,0.0114,0.0177,0.0178,0.0185,0.0203,0.0237,0.0236,0.0235,0.0239,0.0238,0.0238,0,0,0,0,0,0,0.0003,-0.0003,0.0003,-0.0016,-0.0007,0.0015,0.0015,0.003,0.006,0.0067,0.011,0.0121,0.0147,0.0165,0.0165,0.021,0.0211,0.0211,0.0211,0.0211,0.021,0.0199,0.0201,0,0,0,0,0,-0.0008,-0.0024,-0.0018,-0.0033,-0.003,-0.0009,-0.0005,0.0012,0.0036,0.0051,0.0085,0.0118,0.0147,0.0171,0.0192,0.0217,0.0246,0.0231,0.0231,0.0231,0.0224,0.0291,0.0296,0.0233,0.0233,0.0233,0,0,-0.0017,-0.0023,-0.0033,-0.0036,-0.0025,-0.0032,-0.0001,0.0002,0.0009,0.0053,0.008,0.0112,0.0148,0.0181,0.0195,0.0204,0.0261,0.023,0.023,0.0223,0.0291,0.0297,0.0303,0.0232,0.0232,0.0232,0,0,-0.0049,-0.0047,-0.0071,-0.0068,-0.0065,-0.005,-0.0054,-0.0031,-0.0001,0.0018,0.0056,0.0099,0.0133,0.018,0.0203,0.0207,0.0248,0.021,0.0215,0.028,0.0287,0.0293,0.0333,0.0343,0.0222,0.0222,0.0222,0,-0.0059,-0.0091,-0.0075,-0.0095,-0.01,-0.0064,-0.0084,-0.0052,-0.002,0.0006,0.0023,0.0099,0.0136,0.0191,0.0199,0.021,0.0241,0.022,0.0282,0.0289,0.0295,0.0335,0.0346,0.0222,0.0222,0.0222,0.0222,0,-0.0102,-0.013,-0.0142,-0.0157,-0.0155,-0.0164,-0.013,-0.0109,-0.0075,-0.0034,0.0025,0.0088,0.0136,0.0162,0.0186,0.0247,0.0253,0.0268,0.0289,0.0302,0.0343,0.0354,0.0222,0.0222,0.0222,0.0222,0,0,-0.0118,-0.0166,-0.017,-0.0197,-0.0189,-0.0196,-0.0176,-0.0144,-0.0127,-0.0056,-0.0017,0.0064,0.0113,0.014,0.0192,0.0261,0.0338,0.0283,0.0286,0.0331,0.0469,0.0407,0.0414,0.0372,0.0374,0.0376,0.048,0,-0.0156,-0.0219,-0.0224,-0.0275,-0.0302,-0.027,-0.0262,-0.0221,-0.0161,-0.0109,-0.0002,0.0046,0.0103,0.013,0.0213,0.0303,0.0367,0.0307,0.0441,0.0445,0.0397,0.0425,0.0382,0.0488,0.0491,0.0492,0.0494,0,-0.0189,-0.0234,-0.0295,-0.0348,-0.0355,-0.0374,-0.0351,-0.0335,-0.024,-0.0192,-0.0096,-0.0017,0.0102,0.0136,0.0324,0.0285,0.0368,0.0442,0.0449,0.0395,0.0404,0.0472,0.0514,0.0513,0.0511,0.051,0.0508,0,-0.0206,-0.0281,-0.0337,-0.0352,-0.0396,-0.0411,-0.0418,-0.0356,-0.0337,-0.0236,-0.0211,-0.005,0.002,0.0169,0.033,0.0333,0.0523,0.0546,0.0568,0.0565,0.0589,0.0582,0.0661,0.0661,0.0661,0.0661,0.066,0,-0.0235,-0.0282,-0.0359,-0.0388,-0.0452,-0.0459,-0.0482,-0.0458,-0.0411,-0.0378,-0.0256,-0.0198,0.0032,0.0173,0.032,0.0476,0.0521,0.0568,0.0592,0.0585,0.0576,0.0597,0.0588,0.0664,0.0664,0.0663,0.0662,0,-0.0232,-0.0285,-0.0359,-0.0435,-0.0465,-0.0501,-0.0548,-0.0549,-0.0515,-0.0469,-0.0444,-0.0289,-0.0105,0.0103,0.0346,0.0439,0.0602,0.0635,0.0597,0.0616,0.0604,0.0594,0.0685,0.0683,0.0682,0.0681,0.0681,0,-0.0236,-0.0278,-0.0387,-0.0436,-0.0476,-0.0539,-0.0574,-0.0586,-0.0577,-0.0517,-0.0489,-0.0334,-0.0203,0.0097,0.0298,0.0559,0.0583,0.0648,0.0646,0.0594,0.0609,0.0601,0.0592,0.0679,0.0679,0.0678,0.0678,0,-0.0241,-0.0278,-0.0336,-0.0432,-0.0501,-0.0576,-0.0624,-0.0637,-0.0623,-0.0612,-0.0499,-0.0347,-0.0157,0.0092,0.0274,0.0462,0.0606,0.0638,0.0642,0.0641,0.0589,0.0603,0.0596,0.0675,0.0675,0.0675,0.0676,0,-0.0235,-0.0269,-0.034,-0.0415,-0.0512,-0.0578,-0.0614,-0.0613,-0.062,-0.0559,-0.0518,-0.0324,-0.0198,0.0038,0.0217,0.0385,0.0429,0.0474,0.0487,0.0493,0.0398,0.0301,0.0322,0,0,0,0,0,-0.023,-0.0252,-0.0319,-0.0408,-0.0498,-0.0547,-0.0628,-0.0649,-0.0655,-0.0576,-0.0547,-0.0366,-0.0112,-0.0004,0.0159,0.0192,0.0448,0.0381,0.0505,0.0655,0.0659,0.0572,0,0,0,0,0,0,-0.0233,-0.0279,-0.03,-0.0379,-0.043,-0.0524,-0.0579,-0.0586,-0.0544,-0.0524,-0.0379,-0.0334,-0.0074,-0.0172,0.0174,0.0216,0.0308,0.0498,0.05,0.0652,0.0656,0.0659,0.0572,0,0,0,0,0]}]]